User: anonymous   Login
Location: Gleizolles
(44.4833°N, 6.7667°E)
Time: 12:19:38
(UTC+00:00)
Language:

XW-2A - Orbit

View from above orbital plane
View from above orbital plane
View from above satellite
View from above satellite

Ground track
Ground track

The orbit data is extracted from the following two-line orbital elements,

1 40903U 15049E   22342.11416116  .00045038  00000-0  48249-3 0  9999
2 40903  97.1547  41.6811 0007372 181.1733 263.5557 15.63687996406299
Epoch (UTC): 08 December 2022 02:44:23
Eccentricity: 0.0007372
inclination: 97.1547°
perigee height: 372 km
apogee height: 382 km
right ascension of ascending node: 41.6811°
argument of perigee: 181.1733°
revolutions per day: 15.63687996
mean anomaly at epoch: 263.5557°
orbit number at epoch: 40629

The dashed part of the orbit path shows where the satellite is in the earth's shadow,  

DLR